Theta_e
325 327 327 329 330 328 326 326 326 326 326 327 327 328 337 342 329 327 350 354 337 336 342 340 340 339 337 339 336 335 338 338 339 340 339 340 341 341 342 342 342 343 343 343 343 343 344 345 345 347 347 347 349 348 348 350 350 351 353 352 352 350 348 347 346 341 338 332 324 323 329 328 326 328 328 325 325 325 327 329 325 323 325 327 328 327 327
326 326 325 326 326 326 326 326 327 326 326 327 325 330 338 337 332 338 349 350 342 337 336 336 336 333 331 333 334 335 337 338 338 339 339 340 341 341 342 342 342 343 342 342 342 343 344 344 345 346 346 347 348 348 349 350 350 353 353 352 352 351 349 348 346 340 335 330 324 323 325 325 328 332 330 325 323 325 328 328 323 322 325 328 328 328 329
324 324 326 327 325 326 325 324 328 326 325 326 325 330 335 331 333 343 344 343 342 338 339 339 330 328 332 333 333 335 337 339 339 339 340 341 341 342 342 342 342 342 343 343 343 344 343 344 345 345 346 347 347 348 349 349 351 353 353 352 352 351 348 345 342 336 332 330 327 324 325 329 332 333 331 327 323 324 328 325 322 323 327 329 329 328 328
322 324 325 326 326 326 323 323 327 325 325 328 329 335 339 334 338 345 340 337 337 340 347 343 332 332 336 334 332 334 336 339 339 340 341 341 341 342 341 342 342 342 342 343 343 343 343 344 345 345 346 347 347 348 349 350 352 352 352 353 352 350 347 343 341 338 334 332 329 326 327 332 332 331 332 327 322 324 327 323 322 326 328 329 330 328 327
322 327 326 327 326 322 323 332 336 332 333 335 335 341 342 341 348 350 341 338 340 343 348 345 339 340 339 333 331 332 334 337 339 340 341 341 341 342 341 342 341 340 341 342 342 343 343 345 346 345 347 347 347 348 349 349 351 351 352 352 351 349 347 343 342 342 338 332 329 327 329 332 333 332 331 325 322 326 326 324 325 327 328 329 329 327 326
323 330 330 326 322 321 331 347 345 336 337 337 336 338 338 341 348 348 342 343 346 345 345 344 344 343 337 333 332 333 334 337 338 340 341 340 340 341 341 341 341 340 340 339 338 338 339 340 341 342 344 346 347 348 348 349 351 351 351 352 351 349 347 343 343 344 340 334 330 329 329 330 332 333 327 322 323 326 326 327 328 328 328 329 328 327 326
329 334 329 321 320 328 344 350 340 335 336 336 338 339 338 340 344 345 344 345 346 345 340 338 337 336 334 333 334 334 336 336 337 339 339 340 341 340 340 341 339 337 336 335 334 334 335 335 334 335 338 341 345 347 349 349 350 350 350 351 350 348 344 343 343 344 341 337 333 331 331 332 334 333 326 321 322 325 328 331 330 327 327 328 327 327 327
329 329 324 321 325 337 347 342 335 338 338 336 339 337 335 339 341 343 344 341 342 342 334 331 333 333 333 334 334 334 336 335 336 338 337 338 339 338 337 336 334 333 333 333 334 335 336 334 333 333 334 337 341 345 348 350 350 351 351 350 349 347 345 344 343 342 341 338 334 333 334 335 335 333 326 321 322 327 332 334 332 328 327 327 328 328 328
335 334 327 327 331 335 341 340 335 336 334 335 338 336 334 339 340 340 341 338 339 339 332 330 332 332 333 335 334 333 333 333 334 335 334 335 334 333 333 332 332 333 334 334 336 337 337 334 333 334 335 337 341 345 348 350 350 350 350 350 349 348 346 346 344 341 340 337 334 333 334 335 334 330 323 321 326 331 334 334 333 329 327 327 328 327 328
341 338 326 329 331 329 337 346 341 335 329 332 339 339 338 343 341 337 339 338 338 338 332 329 330 331 336 338 335 332 332 332 332 332 332 333 332 331 332 332 333 334 334 335 336 338 337 334 334 335 336 338 342 346 348 350 350 350 350 349 349 348 347 346 343 341 339 337 334 332 333 335 335 330 324 323 329 332 333 333 332 329 328 328 327 328 329
343 339 330 333 333 332 340 346 341 335 330 332 339 336 335 343 340 333 335 337 335 334 331 329 331 335 339 339 335 332 332 332 332 333 333 332 332 331 333 334 335 336 337 337 337 337 336 334 334 335 336 338 341 344 347 348 349 349 349 349 349 348 347 346 343 341 340 337 333 332 333 335 336 332 326 325 328 331 333 334 332 330 329 329 329 329 331
345 346 337 332 334 340 345 342 336 333 332 336 339 332 332 341 338 330 333 336 334 331 328 329 335 339 340 339 336 334 333 332 331 332 332 332 332 333 335 337 338 338 337 336 335 335 334 335 337 338 337 337 338 340 344 347 348 348 348 348 348 347 346 345 342 341 340 339 336 333 333 335 336 335 331 329 331 334 335 335 334 331 329 329 331 332 332
343 342 334 329 335 343 342 337 333 331 334 342 342 335 336 339 334 330 332 332 331 331 329 331 335 336 335 337 338 336 335 335 334 335 335 336 337 337 337 338 337 335 335 333 334 336 337 339 339 338 336 336 336 339 342 345 347 348 348 347 346 345 344 343 341 340 340 341 338 334 332 334 336 337 336 334 335 336 336 335 334 334 332 332 333 334 333
341 343 340 334 337 341 334 332 332 333 337 343 340 337 338 334 331 333 333 331 333 333 333 334 335 335 334 336 337 337 337 337 338 338 337 337 337 336 336 336 335 334 336 336 337 339 341 341 339 337 336 335 336 340 343 346 347 347 346 346 344 343 343 342 340 340 340 341 338 333 332 334 336 337 338 337 336 336 335 335 335 336 336 335 335 335 334
340 346 343 333 336 338 332 334 342 342 341 340 335 334 335 333 333 333 331 332 334 333 334 336 336 335 335 335 335 335 335 336 336 335 335 335 334 334 334 335 335 336 338 339 340 342 342 340 338 337 337 338 341 345 346 346 346 346 345 344 343 342 341 340 340 340 340 340 338 334 333 335 336 337 338 337 336 335 335 336 337 337 336 335 334 334 333
341 346 343 337 339 337 331 336 344 341 336 335 333 333 333 334 336 334 333 334 334 333 335 337 336 335 335 335 336 336 335 335 335 335 335 335 336 336 336 337 337 338 340 341 343 344 342 340 339 340 341 343 345 346 346 346 345 345 344 343 342 341 340 339 339 339 339 340 338 336 336 336 335 336 336 336 336 336 335 336 337 337 336 334 333 332 331
340 341 342 341 337 333 330 332 335 333 333 334 335 335 336 336 337 336 336 336 335 335 335 335 335 337 336 335 336 335 335 336 336 336 336 336 336 337 337 339 341 342 344 346 346 345 343 341 342 342 343 345 345 345 345 344 343 342 342 342 341 340 339 338 338 338 338 338 337 336 336 335 334 333 333 334 336 337 337 337 338 336 335 334 331 330 329
338 335 335 335 331 329 329 330 330 331 332 332 334 337 337 336 336 335 335 335 335 335 334 334 335 335 333 333 332 331 332 333 333 334 334 334 335 336 336 339 341 342 345 347 346 345 343 342 343 344 344 345 345 344 344 343 341 340 340 340 339 339 338 338 337 337 337 336 335 335 335 335 334 332 333 335 337 338 338 339 339 336 334 332 331 330 329
339 339 339 336 331 329 328 327 327 329 328 327 330 332 331 332 334 332 331 331 330 331 332 332 334 333 331 329 328 326 327 327 326 327 328 327 331 335 338 340 342 343 344 344 344 344 344 342 343 345 345 345 345 343 342 341 340 339 338 337 337 337 337 336 336 336 335 335 334 335 335 336 335 334 335 338 339 339 338 338 338 336 332 330 330 329 328
341 342 338 334 329 328 328 326 325 326 325 326 327 326 326 328 328 326 325 325 325 325 326 328 330 333 333 332 330 328 326 325 325 325 324 325 330 336 338 340 342 342 343 344 344 344 343 343 344 345 346 346 344 341 339 338 338 338 337 337 337 337 337 337 336 335 333 333 333 334 334 334 335 335 337 338 338 338 337 336 336 334 331 329 329 328 327
339 336 333 332 330 330 329 326 325 325 325 325 326 326 326 327 326 326 326 325 324 324 323 324 325 327 330 332 333 332 329 327 327 326 325 326 330 335 337 338 340 341 343 343 344 344 343 344 345 345 346 344 341 339 337 336 336 336 336 335 334 334 334 334 332 329 328 327 327 328 329 331 332 333 335 337 337 337 335 334 333 331 329 328 327 327 327
337 335 334 333 333 333 329 326 327 327 327 327 326 325 326 326 327 328 328 327 327 326 325 325 325 324 325 327 329 330 330 330 329 328 328 329 331 334 337 338 339 341 342 342 343 343 343 344 344 344 343 341 338 338 337 334 332 332 332 332 331 331 330 329 326 324 322 322 321 323 327 330 330 331 333 335 335 334 333 332 331 329 327 327 327 327 327
337 335 333 330 329 330 327 325 326 327 326 327 325 323 324 324 324 325 325 325 326 326 325 325 325 325 325 325 325 326 329 331 333 331 330 329 330 333 336 338 339 340 340 341 342 342 343 343 341 340 339 338 338 338 336 333 332 332 332 332 331 330 328 325 323 322 322 323 324 325 328 330 331 332 333 333 333 333 332 331 329 327 327 327 327 327 326
334 331 328 326 324 325 323 323 324 323 323 324 323 322 323 322 322 323 323 323 324 324 325 325 324 324 325 326 327 327 328 331 334 334 333 332 332 334 337 338 338 339 339 340 341 340 341 341 339 337 338 339 339 338 336 335 335 335 333 330 329 328 325 323 324 324 325 326 328 329 330 330 331 333 333 333 332 332 331 330 328 327 327 327 327 326 325
330 325 324 323 322 323 323 323 323 322 323 323 322 322 323 322 322 323 322 322 323 323 324 324 324 323 324 325 327 329 330 333 335 336 337 336 335 335 336 337 337 338 339 340 340 339 339 340 338 337 339 341 340 339 338 337 336 334 332 330 329 327 325 324 327 328 328 328 329 330 331 331 332 333 333 332 332 331 330 329 328 327 327 327 326 325 325
324 322 323 323 322 323 323 322 322 322 322 322 322 322 322 322 322 322 322 322 323 322 323 323 323 324 324 324 325 327 329 332 336 338 339 338 336 335 335 335 336 339 339 340 340 340 339 340 339 338 339 340 339 338 336 334 333 332 331 330 329 327 326 327 330 331 330 330 331 332 332 332 332 332 332 331 331 330 329 329 328 328 327 326 326 326 325
322 323 324 323 321 320 321 321 320 320 322 322 322 322 322 322 322 322 321 322 322 322 322 322 322 323 324 323 324 325 325 327 331 335 337 338 338 337 337 337 337 338 339 340 340 341 340 340 339 338 338 337 336 334 332 329 328 328 328 328 327 327 330 333 333 332 331 332 332 332 332 332 332 332 332 331 330 330 329 329 328 328 327 326 326 326 325
322 323 322 321 320 319 319 319 320 321 322 322 321 321 321 321 321 320 320 321 321 320 321 321 321 322 322 322 322 323 323 324 326 329 332 335 337 338 340 341 339 338 339 340 340 341 340 338 337 336 336 335 334 331 329 327 326 325 326 328 330 333 335 336 335 333 332 332 332 332 332 332 332 332 331 331 330 330 329 328 327 326 325 326 326 326 325
320 321 320 320 320 320 320 320 321 321 320 320 321 321 320 320 320 320 319 319 319 319 320 319 319 320 321 321 321 321 321 322 323 324 327 330 333 336 340 342 341 339 339 341 341 340 339 337 336 336 335 333 331 329 328 328 329 329 331 333 333 333 331 329 328 327 328 330 331 331 331 331 330 330 330 329 330 329 329 328 327 325 324 324 326 325 324
319 319 320 320 319 320 320 319 319 319 318 318 318 318 317 317 317 318 318 318 318 318 319 319 319 319 320 321 321 320 319 319 321 322 325 327 330 334 338 341 341 339 339 340 341 340 338 337 336 335 332 331 330 329 329 331 331 331 331 330 327 325 322 321 321 323 326 329 331 331 330 329 328 328 327 328 328 329 328 327 326 325 324 324 324 323 322
319 318 318 319 318 318 318 317 317 317 316 315 315 314 314 315 315 316 318 318 317 318 318 318 318 319 319 320 321 320 318 317 318 321 323 325 329 333 336 339 341 339 338 338 338 338 337 336 335 332 331 331 331 331 332 332 330 328 326 323 321 320 319 319 320 322 325 328 330 329 329 328 328 327 327 327 328 328 328 326 325 324 324 324 322 321 320
319 319 319 319 318 318 318 318 317 317 316 316 316 316 316 317 317 318 319 319 319 319 318 319 319 320 320 321 321 319 319 318 319 321 324 325 327 331 334 338 340 338 336 335 335 334 335 335 333 331 331 332 332 331 330 328 327 325 323 321 321 321 321 321 322 323 324 327 328 328 328 328 327 327 328 328 327 327 326 325 324 324 324 323 321 320 319
319 319 319 319 319 319 319 319 319 318 318 318 318 317 318 318 318 318 319 319 319 319 319 319 320 321 322 323 322 321 320 320 320 322 324 326 329 331 333 336 337 337 335 335 334 334 334 334 332 331 330 330 331 330 327 324 323 322 322 322 324 325 326 326 326 326 326 326 327 327 327 327 326 326 327 327 327 325 324 324 324 324 323 321 320 319 319
320 319 319 319 319 319 319 319 319 319 319 319 319 318 319 319 319 319 319 319 319 319 319 320 320 320 321 322 322 322 322 321 321 321 322 324 328 331 333 334 334 333 334 335 335 335 335 334 332 330 329 329 329 327 324 322 321 321 322 324 327 328 328 328 328 327 327 327 327 327 327 326 326 326 326 327 326 325 324 323 324 323 321 320 319 318 318
319 319 319 319 319 319 319 319 319 319 319 319 319 319 319 319 319 320 320 320 320 320 320 320 320 320 320 320 321 321 321 321 321 321 321 322 325 329 333 334 332 330 331 333 334 335 335 333 331 329 328 327 325 323 322 322 323 323 324 326 328 328 328 327 327 326 326 326 326 325 325 325 325 325 325 326 325 324 323 322 322 321 320 319 318 317 317
318 318 319 319 319 319 319 319 319 319 319 319 319 319 319 319 319 319 320 320 320 320 320 320 320 320 320 320 320 319 320 320 320 321 321 321 322 326 330 333 332 331 331 332 334 334 334 332 330 329 328 326 324 324 324 325 325 325 326 327 327 327 326 325 324 323 323 324 324 324 325 325 325 324 325 325 324 323 322 321 320 320 319 318 317 317 316
318 318 319 318 318 318 318 318 318 319 318 318 319 319 319 319 319 319 319 319 319 319 318 318 319 318 319 319 319 318 318 318 318 319 320 319 319 323 328 331 331 331 331 332 332 332 331 330 329 329 327 325 325 326 326 326 325 326 327 326 325 324 324 323 322 322 323 324 324 324 324 323 323 322 322 321 321 321 320 320 319 319 318 317 317 316 316
319 318 319 318 318 319 318 318 319 319 318 318 319 319 319 319 319 319 319 318 318 318 318 318 318 319 319 319 318 318 317 317 316 317 318 319 320 324 328 330 330 330 329 329 329 328 327 326 327 327 326 326 327 327 327 327 326 326 325 323 322 322 322 322 321 321 322 322 322 321 321 320 319 319 319 318 318 319 320 319 319 319 318 317 317 316 316
318 318 318 319 319 319 319 319 319 319 319 319 319 319 319 320 319 319 319 319 319 319 319 319 319 320 320 320 320 319 318 318 317 318 320 323 326 328 329 328 328 329 328 327 327 327 326 326 327 327 327 326 327 327 326 325 324 323 322 321 321 322 322 321 321 320 320 320 319 319 318 318 317 316 316 317 317 318 318 318 318 318 317 317 316 316 315
317 318 318 318 319 319 319 319 319 319 319 319 319 319 319 320 319 318 319 319 319 319 319 320 321 322 322 322 321 321 321 321 320 320 323 326 328 328 328 327 327 327 326 326 327 328 327 327 327 327 326 325 325 324 323 322 321 321 321 321 321 322 321 320 319 318 318 317 317 316 316 316 315 315 314 314 314 315 316 316 317 317 317 316 316 315 314
318 318 318 318 319 319 319 319 319 318 318 319 318 318 318 318 318 319 319 319 319 319 320 321 321 322 322 322 321 322 323 324 324 324 325 327 328 327 327 327 327 326 325 325 326 327 326 324 324 325 325 323 323 322 321 321 321 321 320 320 320 320 320 318 317 317 317 316 316 316 316 315 315 314 313 312 312 312 313 314 315 316 316 315 315 314 313
318 318 318 319 319 319 319 319 319 319 319 318 317 317 317 318 319 319 319 319 319 320 320 320 320 321 322 322 322 323 324 325 325 326 326 327 328 327 326 326 326 325 325 325 326 326 324 322 322 323 322 322 321 321 321 321 320 320 319 319 319 320 319 318 317 317 317 316 316 317 317 316 316 315 314 313 312 311 311 312 313 313 313 312 312 311 311
318 318 318 319 319 318 318 318 318 319 319 318 318 318 318 319 320 319 318 319 320 320 321 321 320 321 322 322 322 323 324 323 324 325 325 325 325 324 324 324 325 325 325 325 325 324 323 322 322 322 321 320 320 320 320 319 319 318 318 318 318 318 318 318 317 316 316 315 315 315 316 316 316 316 315 314 314 313 312 311 311 311 311 311 311 311 311
318 318 318 318 318 318 318 318 318 318 319 318 319 319 319 319 319 319 318 319 319 319 320 321 321 321 322 322 322 323 323 322 321 322 322 322 323 323 322 323 323 324 325 325 324 323 323 322 321 320 319 319 319 319 318 318 318 317 317 317 316 316 317 316 316 315 314 313 312 311 311 311 312 313 314 314 314 314 313 312 312 311 311 311 311 312 312
317 317 317 318 318 317 318 318 318 318 318 318 318 318 318 319 319 319 318 319 318 319 320 321 321 321 322 322 322 322 323 322 322 322 322 322 323 323 323 323 323 323 324 324 323 322 321 321 320 320 320 319 319 318 317 316 315 313 312 311 311 312 314 314 314 313 312 310 309 308 307 307 307 308 309 311 312 313 314 314 313 312 312 312 312 311 311
317 316 316 317 317 317 317 317 317 317 317 317 317 318 318 318 319 319 319 319 318 319 320 320 320 321 322 321 321 321 322 322 323 323 323 323 323 323 323 323 323 323 323 323 322 321 321 320 320 319 319 319 317 314 312 311 310 309 309 309 308 309 310 310 310 309 308 307 307 307 307 307 306 305 306 308 310 311 313 314 314 313 313 312 311 309 309
316 316 316 316 316 316 317 316 315 315 315 316 317 317 317 318 318 319 319 319 319 320 320 320 320 320 321 321 321 321 321 322 322 323 323 322 322 322 322 323 323 323 323 322 321 321 320 320 319 318 318 317 314 311 310 309 309 309 309 310 310 310 310 310 309 309 308 308 308 307 307 307 307 306 306 308 309 310 311 312 312 311 310 310 309 308 308
316 316 316 316 316 316 315 314 313 313 313 314 316 317 317 318 318 318 319 319 319 319 319 319 320 321 321 321 320 321 321 321 321 321 321 321 321 321 321 321 321 322 322 321 321 321 320 320 319 318 318 317 315 313 313 312 311 310 310 311 311 310 310 309 309 309 309 309 308 307 306 306 307 307 307 307 308 308 308 308 308 308 308 308 307 307 308
316 317 317 317 317 316 315 313 312 313 313 313 313 314 316 317 318 317 317 318 319 319 318 318 319 320 320 320 320 320 320 320 320 320 320 320 320 320 320 320 320 320 320 320 320 320 320 319 319 319 318 317 316 316 315 314 312 311 312 312 311 310 310 310 310 310 310 309 308 307 305 305 305 306 306 306 306 306 306 307 307 307 307 307 307 307 307
315 316 316 316 316 316 316 314 313 313 313 313 312 312 313 315 316 316 314 315 316 317 318 318 318 318 318 319 319 319 319 319 320 320 319 319 319 319 319 319 319 319 318 318 317 317 317 318 318 318 318 317 316 315 314 313 312 312 311 311 311 311 311 311 311 311 311 310 308 306 305 304 305 305 305 305 305 304 305 305 305 306 306 306 306 306 306
314 315 315 314 314 315 315 314 313 313 313 313 312 312 312 314 315 315 313 312 313 314 315 316 316 316 316 317 317 318 319 319 319 319 319 319 319 318 318 318 318 318 318 317 317 316 315 314 314 314 314 314 314 313 313 312 312 311 311 311 311 312 311 311 312 312 312 311 309 306 305 305 305 304 304 304 304 304 304 305 305 305 305 305 305 305 304
314 314 314 314 313 314 314 313 312 313 313 313 313 312 312 313 314 314 313 312 313 313 313 313 314 314 313 314 315 316 317 317 317 317 318 318 318 318 318 318 318 317 317 317 317 316 316 314 314 313 313 313 313 312 312 312 312 311 311 311 311 311 311 311 312 312 312 310 309 307 307 306 306 305 304 304 303 303 303 304 304 304 304 304 304 304 304
Wind_Speed
17 15 16 14 8 6 8 8 11 13 12 13 13 12 9 10 9 8 8 9 12 12 11 12 13 13 13 15 20 27 29 30 32 33 35 36 37 40 42 43 44 44 43 42 42 43 44 44 46 47 48 50 50 51 52 51 52 51 46 42 42 43 45 47 49 47 37 29 27 26 22 22 22 22 22 21 17 18 25 26 21 18 16 15 16 16 16
14 15 17 16 12 10 9 9 11 12 13 16 16 12 10 12 11 8 10 14 13 12 13 15 16 16 15 15 19 22 23 26 29 31 33 35 38 41 42 42 43 43 41 40 39 41 42 43 44 45 47 49 49 50 50 51 50 47 43 43 45 47 48 47 49 47 37 28 27 28 27 25 26 25 23 21 19 23 28 26 22 19 17 17 18 18 18
10 12 15 15 13 13 13 13 13 12 12 13 12 7 6 7 5 2 9 12 11 8 6 6 8 11 9 8 14 20 25 30 31 30 32 35 37 39 39 40 40 40 39 38 38 38 39 40 41 43 45 46 47 48 49 49 47 44 43 45 46 46 45 45 45 41 34 28 29 32 30 27 27 26 24 23 23 27 29 26 22 20 18 19 19 18 18
8 10 13 14 11 10 12 13 14 12 9 8 6 4 6 8 5 5 7 8 9 7 2 5 5 7 8 9 15 21 25 29 31 31 32 33 34 35 35 36 36 35 35 36 37 36 35 36 37 39 41 43 44 45 45 44 43 42 43 44 44 43 42 43 44 41 35 31 31 35 34 31 31 28 24 26 29 29 28 26 23 21 20 20 20 19 19
7 8 10 11 7 5 8 10 9 9 7 7 5 3 3 6 8 8 6 7 9 6 7 7 6 6 7 7 11 15 19 22 25 28 30 31 31 31 30 31 31 30 30 30 29 27 26 27 28 30 33 37 40 41 42 42 41 42 43 43 43 44 44 45 46 43 39 35 34 37 37 36 34 29 26 29 31 29 28 26 24 23 22 21 20 20 20
7 5 6 8 6 6 8 6 4 7 8 9 9 6 2 2 1 4 4 4 5 7 9 10 9 8 9 9 9 12 17 21 22 23 25 27 27 26 24 22 21 19 16 13 11 10 10 12 13 16 21 27 33 37 41 42 43 44 45 46 46 46 46 46 46 43 40 37 37 39 39 38 34 27 26 30 31 29 28 27 26 24 23 21 21 21 21
4 3 6 7 6 8 5 5 5 2 10 14 12 8 5 6 5 2 1 1 6 8 8 11 15 16 15 13 12 12 16 21 23 22 21 21 20 18 16 14 12 10 8 7 6 6 7 6 7 9 13 18 24 30 35 39 42 44 46 46 46 45 45 45 43 41 37 36 38 41 41 39 33 26 26 29 29 28 29 28 27 25 23 22 22 21 20
3 4 5 7 6 4 3 5 6 4 6 12 12 8 6 7 6 3 2 1 3 5 6 10 19 25 24 19 16 16 15 17 19 19 18 16 15 14 13 12 12 11 10 9 10 11 10 7 6 8 10 14 18 23 28 34 39 43 45 46 46 46 47 45 42 40 38 37 38 41 40 35 29 25 26 29 28 27 28 28 27 25 23 23 22 20 19
3 5 3 3 1 3 4 2 2 3 3 2 8 7 4 6 7 6 3 2 5 6 8 13 20 26 23 14 9 13 16 17 17 17 16 15 14 14 13 13 13 13 13 13 14 13 10 7 6 7 9 11 15 20 25 30 36 40 43 45 47 48 48 46 41 40 40 37 37 39 38 30 24 25 28 28 27 27 27 28 27 26 24 23 22 20 18
2 5 4 3 3 1 3 6 7 4 5 6 3 9 2 6 7 8 2 4 8 8 9 14 20 21 15 6 2 7 14 16 16 16 16 16 16 15 14 14 13 13 13 13 13 11 7 6 6 7 8 10 13 18 23 28 32 36 40 44 46 47 48 45 39 37 40 38 36 38 35 26 23 27 29 26 25 25 26 26 26 25 24 22 21 19 17
2 5 5 4 2 2 5 8 10 8 9 8 1 8 1 5 7 7 2 4 7 10 11 12 13 12 8 4 2 5 12 15 16 17 19 19 17 16 13 11 11 11 12 12 11 8 6 7 7 7 7 9 12 16 21 24 29 33 37 40 42 44 46 44 37 35 39 39 35 35 31 23 21 26 27 24 23 24 25 26 25 25 25 24 23 21 19
2 3 3 2 3 3 6 7 9 11 10 4 6 5 4 5 7 4 5 7 6 8 10 9 7 6 6 6 1 2 11 15 15 18 20 19 17 15 12 9 9 9 8 7 6 6 7 7 7 7 6 8 11 15 18 22 26 30 31 31 33 37 41 39 34 35 40 40 35 34 31 23 20 24 25 24 25 26 27 26 26 27 29 29 27 25 23
2 3 3 1 1 3 5 7 13 13 6 7 7 4 5 5 9 4 11 14 12 14 16 13 9 8 9 11 9 8 12 14 14 16 15 14 12 11 9 8 7 5 4 5 6 7 7 7 6 6 6 8 10 13 17 21 24 23 23 24 28 32 36 35 33 35 40 40 37 37 34 25 21 22 24 26 27 28 27 26 27 31 34 34 33 31 28
3 3 4 2 2 3 5 13 17 10 4 5 3 3 3 10 9 9 18 21 21 24 25 22 20 19 19 19 18 17 15 13 13 12 10 9 7 5 5 5 4 4 5 6 6 6 6 6 5 6 7 9 11 14 18 20 19 18 19 22 26 30 33 33 31 33 38 40 39 40 37 28 21 21 24 25 25 25 24 26 31 35 35 33 33 34 30
1 3 4 3 2 4 11 14 12 6 4 5 5 7 11 12 10 12 21 25 26 29 28 25 25 25 22 21 20 19 17 14 13 11 9 7 5 2 1 2 4 5 5 6 5 5 5 6 7 8 9 11 13 16 17 16 15 16 19 22 25 28 30 31 31 33 37 39 41 42 39 32 26 23 24 23 23 24 26 29 34 36 34 30 30 32 31
2 3 1 2 4 8 14 8 3 4 8 12 15 15 14 15 17 18 20 24 27 29 27 25 24 23 21 19 18 17 16 14 12 10 8 6 4 1 2 4 5 4 5 5 5 5 7 8 9 10 11 13 14 14 14 13 13 15 17 19 23 27 29 30 32 35 37 39 42 44 41 34 28 26 26 25 26 27 28 31 35 37 36 33 29 26 25
2 4 2 3 4 8 10 14 17 18 21 23 24 25 22 22 24 23 22 22 23 25 26 25 24 22 21 19 17 16 15 13 10 9 8 7 4 3 4 4 4 4 5 5 6 7 9 10 11 12 12 12 12 11 11 12 13 14 16 19 22 25 27 29 32 34 35 37 40 40 35 29 26 27 28 27 27 29 30 32 35 34 33 31 27 22 21
1 4 4 5 5 7 14 25 29 29 29 27 29 33 31 27 27 28 26 24 22 22 22 23 22 20 19 19 17 16 14 12 10 9 9 8 7 5 5 5 5 6 6 7 8 9 11 12 12 13 12 11 10 9 10 10 11 13 16 19 22 24 25 27 28 29 30 30 29 29 28 27 27 27 27 27 28 30 30 30 32 32 30 29 27 24 22
3 3 3 4 6 7 11 22 29 31 32 31 32 34 31 29 29 29 28 26 24 23 23 21 18 16 16 16 16 15 15 13 12 13 12 10 7 5 5 7 8 9 9 9 10 11 13 14 14 13 12 11 10 9 8 8 9 10 12 14 17 18 19 20 22 22 20 20 21 22 24 26 26 26 27 28 29 30 29 29 30 29 26 25 24 22 20
4 4 4 2 11 11 9 15 22 27 30 32 32 32 30 29 29 28 28 26 23 21 21 20 16 13 12 12 12 14 15 14 14 14 12 9 6 5 7 10 11 11 11 12 12 13 15 15 13 13 12 11 9 7 5 5 5 6 8 9 11 11 12 13 13 13 12 14 17 19 20 23 26 29 30 30 29 30 30 27 25 24 23 21 20 18 16
6 6 6 7 12 12 9 13 18 23 26 28 28 26 24 24 23 22 22 21 19 19 19 19 18 16 13 12 11 11 12 11 10 9 8 6 4 5 8 10 11 12 13 14 14 15 15 13 13 14 13 11 10 8 7 9 11 12 13 12 10 9 8 6 6 8 10 13 16 18 20 24 27 29 29 28 28 27 25 21 20 21 21 18 16 15 13
5 4 6 9 9 6 4 9 16 17 17 18 21 21 18 16 15 13 11 10 9 10 10 10 13 15 14 11 9 7 6 6 5 5 5 4 3 5 7 9 11 12 12 13 13 14 14 14 15 16 15 14 14 13 13 14 16 16 16 14 11 7 5 5 8 10 13 15 18 20 23 26 26 26 25 25 24 22 20 19 20 20 17 15 14 14 13
5 7 11 13 12 9 7 11 16 16 15 17 21 24 23 22 21 20 18 16 14 13 10 7 7 9 9 8 7 5 3 4 6 7 7 5 5 6 8 9 10 11 11 11 12 13 14 16 18 18 17 17 17 17 18 18 16 14 12 9 8 10 11 12 13 13 14 17 19 21 22 22 22 22 22 21 21 20 20 21 20 18 15 15 15 14 13
7 12 19 20 19 18 17 20 22 23 23 25 26 26 26 26 25 25 24 22 20 19 19 16 13 11 10 8 6 5 3 3 5 8 9 8 8 8 9 10 10 11 11 11 12 14 16 17 19 20 19 19 19 21 22 20 17 15 12 10 12 14 14 13 14 14 14 15 17 17 18 18 19 20 20 20 21 22 22 20 19 17 16 15 15 14 13
15 18 24 27 28 27 26 28 28 26 25 25 26 26 25 24 23 22 22 22 19 18 18 17 15 13 12 11 9 8 6 4 6 9 10 11 10 10 11 11 11 12 12 12 13 14 16 18 21 21 21 20 21 23 22 17 16 17 15 13 15 15 13 12 14 15 14 14 14 15 16 17 19 20 21 21 21 21 20 20 19 18 17 15 14 14 13
28 29 29 30 29 27 26 26 26 25 24 23 24 23 21 19 19 20 20 20 19 17 16 16 15 13 11 10 10 10 9 7 6 9 11 12 12 12 12 11 11 12 13 14 15 15 17 19 21 22 22 20 20 21 19 15 16 17 16 16 16 15 12 11 13 14 14 14 14 15 17 18 20 20 20 20 19 19 20 20 19 18 17 15 14 14 13
27 27 27 24 23 24 26 25 23 22 20 19 19 20 17 15 15 15 16 17 17 17 16 14 13 12 10 9 8 8 8 8 6 6 8 12 15 15 14 14 13 14 14 15 16 17 18 20 21 22 22 20 18 18 16 13 14 16 16 16 16 14 12 12 14 14 14 15 16 17 18 19 19 19 19 19 19 20 21 20 20 19 17 15 15 14 14
24 23 23 22 20 22 25 24 20 18 17 15 14 13 11 9 9 11 12 13 14 14 14 14 14 13 11 11 10 8 7 7 7 6 7 9 14 17 18 18 17 16 17 18 19 20 20 21 21 21 19 18 17 15 13 13 14 15 16 16 15 14 14 14 15 15 15 15 16 16 17 17 18 18 19 20 21 22 21 20 21 20 18 16 15 14 14
28 27 27 26 24 21 19 18 17 16 16 14 12 11 10 9 10 11 12 12 12 12 13 14 15 14 14 14 13 12 10 9 8 9 9 9 11 15 18 20 19 20 20 21 22 23 23 23 23 22 20 19 17 15 14 15 16 16 16 14 14 14 15 15 16 16 15 14 14 14 15 16 17 17 18 19 21 22 22 23 23 20 15 13 13 13 12
26 25 24 23 19 15 14 15 15 14 14 13 12 12 12 12 12 12 12 13 13 13 14 15 14 15 16 16 16 16 14 12 11 11 12 11 11 11 15 18 20 22 24 25 25 26 26 25 24 23 21 19 16 14 16 17 16 15 14 13 13 14 14 15 16 15 14 13 13 13 14 15 15 16 17 18 19 22 24 25 22 17 12 11 11 12 11
23 21 21 19 17 15 15 14 12 11 11 12 12 12 13 14 14 14 14 14 15 15 15 16 16 17 17 17 17 18 17 15 13 12 13 13 12 12 12 17 22 24 25 26 26 27 27 27 25 22 18 15 13 14 16 15 14 13 13 13 13 13 13 13 13 13 13 13 14 15 15 16 16 16 16 17 20 23 24 20 16 12 11 11 10 9 8
17 19 20 18 16 15 14 13 11 11 11 12 12 13 13 13 12 12 13 14 15 15 16 16 16 16 16 16 17 18 19 18 15 12 12 12 12 14 15 16 22 24 24 24 25 26 26 26 22 17 13 12 16 17 13 11 12 12 12 11 11 11 10 10 11 11 12 13 14 14 14 15 15 15 16 18 19 19 16 13 11 12 12 10 8 7 6
16 18 18 17 17 16 15 13 12 11 10 10 11 10 10 11 11 11 12 13 14 15 16 17 16 16 17 17 18 18 19 19 18 15 14 13 13 15 16 16 18 21 23 25 26 26 26 25 24 19 15 16 19 18 15 15 15 14 12 11 10 10 10 9 9 9 10 11 12 12 13 13 14 14 16 17 16 13 11 11 13 13 10 8 6 6 7
17 15 12 12 13 14 13 12 11 10 10 9 9 9 10 11 11 11 12 12 13 15 16 17 18 19 19 20 20 19 20 21 21 20 19 18 15 15 17 17 16 16 19 22 25 26 27 26 24 22 21 22 22 20 18 17 15 15 14 12 10 10 10 9 9 9 9 10 11 12 12 12 12 13 15 16 15 14 14 13 12 11 9 7 6 6 6
10 8 7 7 7 7 8 8 9 10 10 10 10 10 10 11 11 11 11 12 14 15 17 18 20 21 22 22 23 22 21 22 22 22 22 21 18 16 17 18 17 16 16 18 21 23 24 23 21 20 21 21 21 19 17 15 15 14 13 12 10 10 10 9 9 9 9 10 11 11 11 12 12 13 15 15 16 16 15 13 10 10 8 8 7 6 5
5 5 6 6 6 6 7 7 7 8 9 9 10 11 11 12 12 13 14 15 16 17 19 20 22 23 24 25 25 25 24 24 23 24 25 24 21 18 17 18 19 19 18 19 20 20 21 21 21 21 22 20 18 16 15 14 13 12 11 10 10 9 8 8 8 8 9 10 10 10 11 12 12 13 14 15 16 16 13 10 9 10 10 9 9 7 7
8 8 8 9 9 9 8 8 8 8 9 10 10 11 12 13 14 14 15 16 17 18 19 21 22 23 25 25 25 26 26 24 23 23 24 24 22 19 15 16 18 18 19 21 22 23 24 24 23 22 22 20 18 16 14 12 11 10 9 8 7 8 8 8 8 8 9 10 10 11 11 12 12 12 12 12 12 11 10 10 11 12 12 10 9 8 8
12 11 11 11 11 10 10 9 8 9 10 10 10 11 12 13 14 14 15 16 17 17 18 19 19 20 21 22 23 23 23 21 20 20 20 21 19 16 14 16 18 18 18 18 19 20 21 21 20 19 19 18 16 12 10 9 9 8 7 7 8 9 9 9 9 9 9 9 10 10 10 9 8 8 7 7 7 7 9 11 12 11 11 11 9 8 9
15 14 13 12 11 11 10 10 10 10 10 10 11 11 12 12 13 14 15 15 16 16 16 17 17 18 18 18 18 18 18 18 17 15 15 17 17 15 14 16 17 17 16 14 13 13 14 15 16 16 15 13 11 10 9 9 9 9 9 9 9 8 8 7 7 6 7 7 7 6 5 4 3 3 4 4 5 7 9 10 10 10 11 11 10 9 9
17 15 14 13 11 11 11 11 12 11 11 11 11 11 11 12 12 13 13 14 14 14 15 16 16 16 17 17 16 14 13 13 13 12 13 15 15 14 13 12 12 11 10 7 9 12 13 13 13 12 10 9 9 9 8 8 8 8 8 8 7 6 5 5 4 4 4 4 3 3 3 3 3 3 4 4 5 7 9 10 10 10 11 12 11 9 9
15 15 14 13 11 10 10 11 11 10 10 10 10 10 10 10 10 11 12 13 13 14 16 17 16 16 18 20 18 14 10 10 11 11 11 11 11 11 10 8 5 4 4 6 9 11 12 11 9 8 7 6 6 6 6 6 6 6 6 6 6 6 6 6 6 5 4 3 3 4 4 5 5 5 5 5 6 7 8 9 9 10 11 11 10 10 10
15 15 14 14 13 12 11 10 10 9 9 9 9 9 8 8 8 9 12 13 13 13 15 16 15 14 16 18 17 13 10 9 9 9 8 8 8 7 6 5 5 6 7 9 10 11 10 8 6 5 4 4 4 4 4 4 4 5 5 5 5 6 8 8 8 7 7 6 7 8 8 9 9 9 9 8 8 8 9 9 10 10 10 10 10 10 11
14 14 14 14 14 13 12 11 10 9 8 8 8 8 8 7 7 9 11 12 12 13 14 14 13 13 13 14 14 12 9 6 5 4 3 2 2 1 1 3 6 7 8 9 9 9 8 6 5 5 3 3 4 4 4 4 4 4 5 5 5 6 8 9 9 9 8 9 9 10 11 12 13 14 14 14 13 12 11 11 11 12 11 11 11 11 12
11 12 13 13 13 13 13 12 11 11 10 9 8 8 8 8 7 9 10 11 12 14 15 13 12 13 13 12 11 11 9 8 8 7 5 4 4 3 1 3 5 7 8 7 8 8 7 5 4 4 4 4 4 3 3 4 4 4 6 7 8 9 9 9 9 9 9 9 9 10 11 12 14 16 17 18 18 18 17 16 15 14 15 15 14 14 15
9 11 12 12 12 12 13 12 12 12 12 10 8 8 8 7 7 8 10 11 12 13 14 13 13 13 13 11 11 10 9 8 7 5 4 5 5 3 1 2 4 5 5 5 5 5 4 3 3 4 5 5 5 5 5 5 5 5 6 7 8 9 9 10 10 10 10 9 9 9 10 12 14 16 18 19 19 21 21 21 19 19 18 18 18 17 17
7 8 9 10 11 11 12 12 12 12 11 11 11 11 10 10 9 9 10 11 11 12 12 12 12 13 12 11 10 9 8 7 6 5 4 5 6 4 1 2 3 4 4 3 3 4 4 4 5 6 6 6 6 6 6 5 5 4 4 4 4 4 5 6 7 8 9 9 9 9 11 15 16 15 15 18 19 20 21 22 22 22 21 20 19 18 17
6 6 7 8 9 10 10 11 13 13 14 14 15 15 14 13 12 11 12 11 11 11 11 11 11 11 11 11 10 9 7 7 6 6 5 5 5 4 2 1 2 3 4 4 4 3 3 5 6 7 7 7 7 7 7 5 5 4 3 2 3 3 4 6 7 8 9 9 10 11 13 15 17 16 13 13 14 15 15 17 19 19 19 19 18 17 16
7 6 5 6 7 8 9 11 13 14 15 15 15 15 15 13 12 12 11 11 10 10 11 10 10 10 10 11 11 10 8 6 6 6 6 6 5 4 3 2 2 3 4 4 4 4 4 5 7 7 7 7 8 8 7 6 5 6 6 6 7 7 8 9 10 11 12 12 13 13 13 13 13 15 13 11 10 11 13 14 15 17 17 17 17 17 17
8 6 4 4 4 4 5 9 12 13 13 13 14 14 13 12 12 11 11 10 9 9 9 9 9 9 9 9 9 10 9 7 6 6 5 4 3 3 3 3 3 3 3 4 5 5 6 6 8 8 9 9 10 10 10 8 8 8 9 10 10 10 10 11 12 13 14 15 15 15 15 13 12 12 12 12 12 13 14 14 15 15 15 15 16 17 17
8 6 4 3 3 2 2 5 9 10 10 11 12 13 13 12 10 10 11 11 10 9 8 7 6 7 7 7 7 7 7 6 5 4 3 1 1 1 2 3 3 3 3 4 4 5 6 7 8 9 10 10 10 11 10 10 10 10 11 11 11 11 11 12 14 15 17 18 17 16 15 14 13 12 11 12 13 14 15 15 14 14 14 14 14 15 16
6 4 2 3 4 3 2 4 7 8 8 9 10 11 12 12 9 8 10 10 9 9 9 8 7 7 7 7 7 6 5 4 4 4 4 3 2 2 2 3 4 4 5 5 5 5 6 6 6 7 8 9 10 10 11 11 12 12 13 13 13 13 13 14 15 17 18 19 18 17 16 15 14 14 13 12 13 13 15 16 15 15 15 15 15 16 16
5 3 3 5 6 5 4 5 7 8 8 8 8 9 10 10 9 8 10 10 10 9 8 8 7 7 8 8 7 6 6 6 6 6 6 5 5 4 4 6 6 6 7 7 8 8 8 8 9 9 9 9 10 11 12 13 15 15 15 15 16 16 16 17 17 18 18 19 19 18 17 17 16 15 14 13 13 12 12 14 15 16 16 16 16 16 16
Wind_Direction
220 219 222 223 210 210 220 209 205 204 191 180 186 194 180 152 163 213 224 189 185 199 203 204 206 200 200 204 201 199 200 197 197 199 202 206 209 212 215 217 219 221 224 229 232 233 234 233 232 232 232 232 232 233 234 234 233 231 227 221 219 220 218 218 219 214 203 194 197 204 213 224 233 236 232 234 240 232 228 232 234 230 231 242 252 257 263
227 222 228 232 225 230 239 231 221 208 191 188 195 197 178 172 190 201 178 181 197 202 198 204 207 201 197 198 196 196 196 195 194 196 200 204 208 212 215 217 219 223 227 231 233 233 234 233 233 234 233 233 234 234 234 235 233 229 223 221 223 224 221 220 220 213 198 186 194 201 200 208 222 230 235 242 237 224 225 233 234 232 235 244 252 259 265
237 223 226 232 227 229 236 237 233 219 199 193 193 183 167 182 205 156 153 179 212 225 201 187 189 185 177 172 178 187 194 194 192 194 198 203 207 211 214 217 220 223 227 230 231 232 233 234 235 236 235 235 235 235 235 234 231 226 223 225 227 225 220 216 211 204 198 199 202 200 199 206 216 225 236 241 229 222 227 232 232 233 237 244 251 259 265
234 223 221 228 227 230 240 245 240 224 199 187 185 164 165 176 164 110 122 174 220 231 143 91 114 156 170 184 185 187 192 193 191 193 198 203 207 211 214 218 221 223 227 230 232 235 236 238 238 237 237 236 235 235 234 233 229 226 226 227 226 222 217 211 207 206 212 216 206 196 197 203 209 219 233 232 223 221 226 230 232 234 238 244 251 259 262
234 229 207 205 200 212 244 250 229 202 177 157 145 134 169 168 147 138 159 207 221 201 146 132 138 160 181 203 199 187 185 188 192 196 199 202 207 210 213 217 220 224 230 234 238 242 245 247 248 247 245 242 239 238 236 232 229 228 229 228 224 221 217 212 210 214 218 215 204 196 196 201 209 219 226 222 218 220 225 230 234 236 239 245 252 257 259
224 228 166 155 159 196 232 260 220 173 151 134 118 93 38 3 87 169 193 205 179 156 157 164 163 166 173 181 194 192 183 182 186 193 199 203 206 209 213 218 221 224 226 226 230 239 246 254 257 257 254 251 247 244 240 236 234 232 232 231 227 222 216 211 214 220 220 214 208 204 200 201 209 218 219 217 217 220 224 231 235 238 241 247 252 256 258
195 168 128 149 197 222 245 320 329 132 121 113 99 74 44 13 350 319 328 198 180 173 174 166 155 151 154 159 171 181 186 187 187 189 195 199 201 205 210 211 205 193 181 180 194 199 198 211 228 243 254 255 252 249 244 240 237 234 233 231 226 218 210 209 217 225 224 218 213 207 201 204 214 223 221 217 217 219 224 230 236 239 244 248 253 256 259
162 136 140 182 214 259 333 12 0 4 92 106 94 58 10 4 12 4 347 289 192 162 146 150 148 143 139 140 147 152 161 176 181 181 183 184 188 194 196 193 186 180 185 198 205 198 190 195 222 244 258 261 259 254 248 242 237 234 232 229 225 219 213 213 221 227 224 219 213 205 201 207 222 230 223 218 218 220 225 231 237 243 247 250 254 257 260
152 132 137 176 97 6 345 354 343 317 301 171 116 91 343 334 22 23 356 70 93 101 113 127 134 130 122 112 120 140 149 158 163 166 170 172 177 179 178 179 181 189 201 205 201 196 195 211 241 253 258 262 262 255 247 241 236 232 230 229 228 224 220 220 226 227 221 217 211 203 201 210 227 230 222 220 223 224 228 234 239 245 249 251 254 257 262
115 106 111 101 71 81 243 274 279 281 308 292 128 101 15 314 14 18 349 129 117 110 113 128 130 120 106 90 110 145 151 158 162 164 167 169 171 171 173 178 185 195 204 203 197 197 209 239 255 255 254 258 259 254 247 241 236 233 231 230 229 227 224 226 232 230 221 213 204 199 202 217 237 234 225 225 228 229 233 240 245 251 254 254 254 257 263
63 103 127 135 123 211 242 274 287 304 322 308 52 95 161 279 353 11 33 126 121 122 126 133 125 106 109 154 175 134 145 153 160 165 167 168 169 172 178 185 192 194 192 190 193 206 237 260 256 245 245 253 256 255 251 246 241 236 233 231 232 232 230 231 233 227 216 207 199 199 207 224 241 236 229 230 234 236 240 245 251 258 260 257 254 254 256
55 95 100 122 136 242 260 267 284 302 317 351 79 103 219 283 350 16 124 108 98 113 114 109 90 85 136 161 31 98 144 147 152 160 167 170 169 169 172 175 181 184 185 193 219 249 261 254 238 231 242 255 258 257 255 249 243 239 237 239 241 239 235 233 230 222 213 208 204 206 213 228 242 240 238 240 241 242 247 252 259 266 262 256 252 249 246
16 76 91 105 212 252 264 284 295 304 338 66 92 184 229 355 14 76 120 110 107 105 97 91 83 83 106 109 91 101 124 131 138 148 155 155 150 151 160 168 178 193 219 245 254 252 244 231 227 237 251 260 261 258 254 249 246 245 244 244 242 237 232 230 228 222 218 217 213 209 213 230 249 250 249 248 244 245 249 255 261 265 263 258 253 247 242
9 73 96 33 297 260 304 313 311 321 58 109 173 190 78 39 36 89 101 100 102 98 93 94 98 97 97 97 96 95 97 103 112 115 115 116 117 131 162 180 209 235 246 252 250 241 228 221 234 250 258 265 263 254 247 245 245 245 241 238 236 232 229 231 230 225 220 217 212 209 215 232 253 258 254 249 246 248 252 255 258 262 262 257 250 245 244
45 59 55 47 211 275 325 328 321 348 81 149 151 96 69 53 47 75 90 94 97 96 95 97 101 102 100 98 98 97 95 96 96 88 81 82 78 67 216 250 269 266 265 268 258 239 231 236 249 254 256 258 251 242 239 240 240 237 234 232 231 229 229 231 228 221 217 214 210 211 219 234 254 265 261 253 251 253 254 256 259 262 263 258 249 247 248
74 89 75 173 212 298 335 0 67 61 77 110 110 95 79 70 67 71 80 88 93 96 98 100 102 103 101 99 100 99 96 95 94 89 83 78 69 10 315 302 289 280 277 269 251 238 242 247 247 245 244 245 242 238 239 240 239 236 232 230 229 229 230 227 221 218 217 215 214 216 224 238 257 266 263 259 259 257 257 259 261 261 262 258 249 247 252
139 150 205 265 290 329 18 79 97 90 91 100 101 96 88 80 79 79 78 81 88 93 95 97 98 98 97 98 97 92 89 89 88 88 82 72 59 18 346 323 296 277 260 248 246 249 249 244 238 235 234 234 234 238 241 239 238 237 232 230 229 228 226 223 219 218 218 218 219 222 230 244 255 256 256 260 263 263 264 267 265 259 256 254 248 250 264
148 83 25 358 14 35 74 92 97 97 97 98 96 94 91 87 85 80 73 73 78 81 82 85 89 91 91 91 89 85 83 80 72 64 60 54 44 19 348 315 284 266 251 247 252 254 250 242 233 227 225 223 224 231 236 235 234 233 231 229 228 226 226 225 222 222 224 226 228 233 243 251 253 253 257 263 266 266 268 271 267 259 254 256 258 262 268
137 70 332 346 30 45 77 95 101 102 98 95 95 94 92 91 89 82 75 72 68 64 63 63 68 75 75 74 76 74 69 62 49 38 34 30 22 357 314 283 265 258 257 259 258 254 248 239 228 219 216 215 216 221 227 233 235 235 235 233 231 229 229 228 228 229 231 229 230 241 258 264 261 262 265 266 266 268 270 272 269 261 255 258 263 264 262
106 125 185 89 59 56 67 88 99 103 101 99 100 98 95 94 90 82 77 73 66 59 56 51 49 52 46 41 47 49 47 44 38 30 23 15 359 320 291 277 266 261 261 258 253 249 245 236 221 211 208 206 207 211 217 214 200 192 198 207 211 210 208 210 217 223 224 224 231 248 265 268 265 267 268 267 266 268 270 270 266 258 254 259 265 263 255
83 105 156 126 78 63 64 80 89 95 98 100 101 102 101 100 96 88 80 74 65 58 56 50 44 39 29 20 22 26 30 33 31 23 14 1 326 291 286 281 272 265 260 256 254 251 243 228 210 203 202 197 190 185 173 151 138 141 154 160 156 156 164 183 200 198 201 215 227 235 245 255 262 266 268 267 267 267 265 260 253 251 253 257 259 254 248
136 145 172 154 117 89 98 106 101 99 98 93 91 91 88 89 95 96 94 87 64 47 41 34 23 14 2 357 2 8 10 4 350 343 343 329 294 282 282 277 272 268 262 259 259 251 235 218 203 197 193 184 178 176 169 155 146 148 152 149 143 151 182 225 226 207 201 210 219 228 240 252 261 264 265 264 262 256 248 244 246 251 253 250 248 249 252
159 150 145 140 124 117 126 119 108 106 106 97 90 88 85 82 82 82 85 86 78 68 65 58 34 12 356 344 332 320 319 315 310 315 319 310 293 286 279 275 279 278 268 262 256 241 224 212 201 193 188 182 178 178 175 170 169 173 173 176 200 218 225 231 232 228 227 230 234 240 246 251 255 258 259 256 248 241 238 240 245 250 250 249 251 254 258
93 118 123 118 109 103 103 102 99 97 97 96 91 87 84 82 80 80 81 82 82 82 79 75 70 63 51 33 358 324 294 268 284 297 296 285 279 280 275 276 283 282 273 263 249 231 219 212 202 195 191 188 187 187 187 193 206 216 223 236 237 228 226 232 235 238 240 239 240 242 243 245 248 250 249 245 240 240 242 245 246 248 250 252 254 257 264
108 110 110 104 99 96 94 93 89 86 87 89 85 81 80 80 81 81 79 76 75 76 73 67 61 52 42 36 27 10 346 303 278 276 273 270 273 278 280 281 283 280 273 262 247 233 224 216 208 203 199 197 198 200 203 216 231 229 230 239 234 225 229 236 235 235 237 237 237 238 240 245 247 246 244 244 245 247 247 246 246 247 249 252 255 262 271
112 111 105 96 90 89 90 88 80 76 80 82 79 77 75 74 74 72 69 65 61 57 56 54 48 41 35 32 30 24 14 355 312 283 275 273 273 278 282 284 282 276 266 254 246 240 232 221 216 214 212 211 214 216 218 234 249 245 243 241 231 224 227 229 228 233 241 242 240 240 243 246 246 245 246 248 249 250 251 250 253 254 252 250 254 262 271
110 112 107 94 79 77 81 80 74 72 75 75 73 72 68 65 67 63 57 55 50 44 43 40 35 32 29 22 16 11 12 11 356 314 288 276 273 276 280 279 275 270 260 251 245 239 230 221 217 218 219 221 226 226 227 236 244 238 230 223 216 215 220 222 226 235 242 242 242 242 242 244 244 246 250 252 253 254 255 258 262 260 251 246 251 259 268
101 105 105 99 89 83 84 83 79 77 72 65 63 63 54 44 44 42 40 40 35 30 28 25 19 13 7 4 1 352 346 348 349 341 316 286 273 270 270 268 264 259 254 247 239 228 220 216 216 218 222 226 228 227 227 229 225 212 201 198 202 209 217 223 229 236 240 240 241 241 242 246 250 253 256 258 259 258 257 259 259 253 242 240 248 257 266
90 90 92 93 92 90 88 83 78 75 69 61 57 52 40 30 30 29 27 22 15 9 9 9 6 359 352 347 345 345 342 335 325 321 318 302 280 268 265 263 259 252 244 236 229 223 221 222 226 229 230 229 227 223 219 215 207 197 190 193 203 213 222 230 236 241 244 244 244 244 246 250 254 258 260 260 259 257 255 255 254 248 237 236 249 261 269
85 86 86 84 84 84 79 69 62 59 55 48 44 39 30 22 16 11 6 0 354 350 349 347 344 342 339 336 337 340 339 331 318 309 308 310 303 284 268 258 252 245 236 229 227 227 226 228 232 233 231 229 226 218 205 195 188 187 192 204 214 221 228 236 240 243 248 249 248 250 252 256 261 264 264 261 257 254 253 251 249 247 241 239 251 263 267
83 79 76 72 70 70 64 55 48 43 36 28 21 17 15 11 5 358 351 345 340 338 337 334 329 326 327 329 332 332 328 325 318 306 298 301 311 312 289 261 248 244 238 231 229 230 232 235 235 230 225 221 207 190 182 181 187 196 205 213 218 221 227 233 236 240 245 248 252 256 260 265 270 272 272 270 264 257 253 247 242 243 248 251 257 263 261
81 70 63 60 59 60 57 50 40 31 22 12 7 7 6 1 354 348 342 338 334 330 327 326 324 323 322 323 325 324 321 321 321 312 300 294 302 315 308 274 251 245 240 235 234 238 239 233 220 207 201 192 180 174 179 195 208 215 222 225 226 226 228 231 233 236 244 251 257 262 267 273 277 279 280 279 271 260 255 253 251 251 254 257 260 257 252
62 58 50 45 45 46 44 41 33 25 17 10 3 358 350 342 339 336 331 327 322 317 315 316 317 319 320 321 322 320 317 317 317 316 315 308 301 306 306 285 258 246 242 241 241 242 239 227 214 214 225 217 203 203 217 222 223 232 240 237 229 228 235 242 246 251 259 264 267 272 278 282 283 282 282 279 271 265 268 271 265 257 253 251 249 249 253
59 60 50 40 37 32 24 18 11 5 2 358 348 339 335 335 334 330 325 319 314 311 309 310 310 311 313 316 317 317 316 314 312 313 317 318 312 306 301 290 275 262 256 252 249 246 243 236 228 230 236 230 220 217 220 225 238 251 249 237 231 239 250 258 263 268 276 279 280 283 285 283 281 280 278 274 271 274 280 277 264 253 248 242 240 250 264
61 61 47 33 28 18 8 2 355 350 347 343 337 335 333 330 327 325 321 317 313 312 311 310 308 308 309 310 311 312 313 312 309 309 311 314 315 308 293 281 277 276 270 260 252 248 244 238 227 219 217 216 213 213 220 238 256 257 245 238 243 250 256 262 267 275 282 282 281 282 280 276 276 275 273 271 272 277 282 277 261 250 247 243 241 251 265
26 20 11 5 2 357 352 349 347 346 342 337 334 331 326 323 322 320 316 314 313 313 312 310 308 305 305 305 306 307 308 307 304 303 305 308 312 307 288 269 266 268 264 254 246 241 232 222 212 206 206 210 217 229 242 254 257 248 242 246 252 256 263 272 278 284 285 279 277 279 277 276 277 276 274 276 278 278 276 266 254 253 255 250 243 242 244
26 19 14 10 7 3 357 353 351 348 342 336 332 329 328 327 326 322 319 318 316 314 312 309 306 303 302 301 300 300 301 300 298 297 299 303 307 306 288 263 251 249 248 243 233 220 209 204 202 203 210 222 236 247 251 249 243 240 244 253 262 273 283 288 291 290 282 274 273 275 277 281 284 283 282 285 286 279 266 254 253 257 255 247 240 243 249
32 22 14 9 5 3 360 356 353 348 342 337 332 330 330 331 331 330 328 325 322 318 315 312 309 307 304 301 298 297 296 295 293 292 294 299 300 294 277 258 244 236 238 239 225 206 201 205 209 212 219 227 232 234 233 232 233 239 250 266 280 287 286 284 284 280 271 268 273 278 281 288 293 294 294 296 292 273 256 251 254 254 245 236 239 253 263
33 25 16 7 0 356 352 349 347 345 342 337 332 330 331 331 332 332 331 330 329 328 325 323 321 317 313 309 307 303 300 297 293 290 291 293 287 270 255 253 251 249 254 256 239 217 212 212 206 202 205 208 207 209 217 226 236 250 264 274 281 280 273 270 270 261 254 262 274 279 285 298 307 304 294 280 266 258 254 253 255 249 238 235 246 263 273
31 23 14 7 359 351 347 346 346 344 341 335 332 331 330 328 331 334 335 337 339 340 338 338 337 334 331 331 327 318 309 304 300 294 290 286 274 258 250 254 256 255 255 243 217 210 211 203 188 182 186 195 200 207 216 226 241 258 267 270 267 258 246 237 228 226 240 258 266 264 278 300 305 294 274 256 254 260 261 259 256 248 240 241 252 266 276
30 23 17 12 6 358 352 350 348 345 343 339 334 331 328 326 331 339 342 343 345 346 348 349 346 342 341 342 340 335 331 331 327 316 301 286 270 258 252 248 238 217 190 181 187 193 192 183 173 169 171 181 196 211 223 235 248 258 261 261 254 238 217 202 200 211 230 249 259 266 276 284 286 281 269 256 256 262 261 257 254 250 247 250 255 262 269
26 23 19 18 17 14 7 360 354 352 349 344 340 340 339 337 339 343 346 349 353 357 359 357 351 343 342 344 347 348 345 337 330 321 304 285 274 266 248 219 195 177 174 186 197 195 185 183 195 201 193 197 213 219 220 228 238 245 248 251 247 234 223 220 222 227 236 248 258 261 261 260 264 267 264 258 257 259 256 249 243 239 239 243 249 255 261
23 22 20 20 20 18 15 12 9 8 6 359 355 357 360 357 350 347 351 357 4 8 7 4 360 356 354 355 359 3 1 352 350 350 335 301 295 307 211 197 210 214 207 202 202 197 194 207 232 235 216 198 190 186 194 211 224 231 237 242 244 243 242 241 242 246 253 262 267 266 264 262 261 260 260 258 258 257 254 247 240 238 238 241 248 255 259
20 19 19 18 17 18 21 23 24 25 24 17 6 359 356 353 349 350 354 359 5 10 11 9 7 7 7 7 10 18 29 45 57 62 69 74 63 43 76 164 199 217 218 209 200 195 192 198 205 195 180 172 171 184 211 221 217 224 236 241 243 245 244 244 249 256 264 272 276 279 281 278 271 266 263 260 258 256 255 251 249 248 249 250 253 256 256
18 18 18 17 17 21 26 28 28 30 32 30 21 10 2 357 352 353 355 355 359 8 15 15 12 14 15 15 15 19 27 37 43 46 51 53 42 23 355 188 194 205 207 196 184 179 179 184 184 179 179 187 200 220 230 226 224 233 239 239 240 243 245 249 257 263 267 273 281 289 299 303 295 281 269 263 260 258 255 253 253 256 257 257 256 255 253
15 18 22 24 25 26 30 32 32 33 36 39 40 37 34 32 27 19 12 8 9 16 20 17 13 16 21 23 23 23 21 18 16 16 21 31 38 46 100 189 205 215 218 213 198 187 186 184 182 185 196 210 218 221 218 211 207 210 208 208 219 233 243 256 268 271 272 276 284 293 306 319 322 309 284 267 263 260 255 252 253 257 258 257 254 251 248
13 22 33 37 36 35 39 41 39 35 35 38 41 40 40 40 39 34 28 25 22 22 21 17 13 15 20 25 30 32 29 24 25 31 30 23 24 35 50 102 202 211 218 224 222 214 203 191 188 199 215 221 215 210 211 209 203 202 207 228 254 263 268 276 280 278 275 278 285 290 298 314 329 330 311 281 267 264 259 253 252 253 253 252 251 246 241
15 20 31 34 35 42 46 41 33 29 29 32 33 34 35 37 37 34 32 31 27 22 18 14 12 13 17 21 25 30 31 30 28 27 22 15 13 19 17 352 281 242 233 235 238 240 231 218 215 222 230 227 223 227 236 241 238 243 262 282 288 282 277 277 282 287 289 289 290 290 290 298 315 326 323 307 287 276 268 260 255 253 251 251 249 243 237
27 33 42 33 24 35 42 34 28 27 28 28 27 27 29 31 32 32 30 29 29 26 20 12 5 3 4 7 12 16 19 19 16 9 4 7 19 21 360 321 296 282 271 265 266 265 255 241 235 236 238 238 241 248 254 257 260 268 279 286 285 282 281 286 294 301 301 296 290 286 283 284 292 306 316 318 309 290 274 265 261 258 255 251 246 238 233
31 44 63 44 7 341 353 17 19 21 25 29 29 26 22 23 28 32 29 25 23 24 24 17 5 357 355 354 356 360 2 4 3 357 347 346 52 42 331 312 305 295 279 268 263 261 256 250 246 246 247 250 255 259 262 263 267 272 276 279 282 286 292 298 303 304 300 295 288 279 272 272 278 284 297 312 313 295 275 265 263 261 257 251 243 234 230
17 25 31 12 358 338 323 356 10 15 21 31 35 30 22 17 17 17 15 11 10 15 19 18 10 1 358 354 350 347 342 335 332 328 318 301 272 239 246 265 272 269 265 262 257 255 255 254 252 251 252 253 256 260 262 263 264 264 266 272 279 285 288 291 295 296 295 292 286 277 270 272 276 277 282 298 309 297 276 265 263 261 255 248 239 233 231
359 359 349 349 354 354 353 5 13 14 12 15 21 21 18 14 7 359 355 351 348 351 358 359 357 359 1 355 347 340 332 326 325 323 318 313 305 285 263 260 259 257 257 256 255 253 253 253 251 251 253 254 255 259 261 262 261 262 264 270 277 280 281 284 288 289 287 285 283 280 278 279 280 278 278 287 298 295 278 265 260 257 252 248 244 240 239